Regional Weather Roundup
Issued by NWS

Home | Current Version | Previous Version | Text Only | Print | Product List | Glossary Off
Versions: 1 2 3 4 5 6 7 8 9 10 11 12 13 14 15 16 17 18 19 20 21 22 23 24 25 26 27 28 29 30 31 32 33 34 35 36 37 38 39 40 41 42 43 44 45 46 47 48 49 50

521
ASUS44 KJAN 190010
RWRMS

MISSISSIPPI HOURLY WEATHER ROUNDUP
NATIONAL WEATHER SERVICE JACKSON MS
700 PM CDT FRI APR 18 2014

NOTE: "FAIR: INDICATES FEW OR NO CLOUDS BELOW 12,000 FEET WITH NO
SIGNIFICANT WEATHER AND/OR OBSTRUCTIONS TO VISIBILITY.

MSZ001>002-007>008-010>013-018>021-025>028-034>036-190100-
NORTHWEST MISSISSIPPI

CITY           SKY/WX    TMP DP  RH WIND       PRES   REMARKS
CLARKSDALE       N/A     68  54  60 E6        30.15S
CLEVELAND      CLOUDY    70  56  61 E8        30.12S
GREENWOOD      PTCLDY    68  54  60 NE7       30.13F
6HR MIN TEMP:  67; 6HR MAX TEMP:  74;

GREENVILLE     PTCLDY    71  52  50 E10       30.12R
6HR MIN TEMP:  71; 6HR MAX TEMP:  75;

GRENADA        CLOUDY    64  54  68 E7        30.15F
OLIVE BRANCH   MOCLDY    66  52  59 E5        30.16S
OXFORD         MOCLDY    64  50  59 E3        30.18S
TUNICA         MOCLDY    68  54  60 NE6       30.15S
$$

MSZ003>006-009-014>017-022>024-029>033-037>039-190100-
NORTHEAST MISSISSIPPI

CITY           SKY/WX    TMP DP  RH WIND       PRES   REMARKS
BELMONT        FAIR      62  52  70 CALM      30.16F
COLUMBUS AFB   CLOUDY    62  52  69 SE2       30.17S
6HR MIN TEMP:  62; 6HR MAX TEMP:  68;

CORINTH        FAIR      64  50  59 S6        30.17S
GOLDN TRIANGLE MOCLDY    61  50  67 NE7       30.19S
STARKVILLE     CLOUDY    63  54  72 NE7       30.16S
TUPELO         CLOUDY    63  53  70 NE5       30.17R
6HR MIN TEMP:  60; 6HR MAX TEMP:  64;

$$

MSZ040-058-190100-
CENTRAL MISSISSIPPI

CITY           SKY/WX    TMP DP  RH WIND       PRES   REMARKS
JACKSON INTL   MOCLDY    69  53  56 NE6       30.11S
6HR MIN TEMP:  68; 6HR MAX TEMP:  74;

JACKSON HAWKNS CLEAR     70  52  52 NE3       30.11S
6HR MIN TEMP:  69; 6HR MAX TEMP:  74;

MERIDIAN KEY   CLOUDY    58  54  86 NE10      30.14S
6HR MIN TEMP:  58; 6HR MAX TEMP:  62; 6HR PCP: TRACE;

MERIDIAN NAS   CLOUDY    58  54  86 NE6       30.15F
6HR MIN TEMP:  58; 6HR MAX TEMP:  62;

RAYMOND        FAIR      66  63  88 N3        30.11S
VICKSBURG      CLEAR     71  55  56 NE9       30.10S
6HR MIN TEMP:  62; 6HR MAX TEMP:  76;

$$

MSZ059>079-190100-
SOUTH MISSISSIPPI

CITY           SKY/WX    TMP DP  RH WIND       PRES   REMARKS
BROOKHAVEN     FAIR      68  55  64 NE3       30.12R
COLUMBIA       FAIR      64  55  72 MISG      30.10R
HATTIESBURG    CLOUDY    63  56  78 N8        30.12R
6HR MIN TEMP:  59; 6HR MAX TEMP:  65; 6HR PCP: TRACE;

MCCOMB         PTCLDY    70  53  54 NE6       30.08S
6HR MIN TEMP:  69; 6HR MAX TEMP:  74;

NATCHEZ        CLOUDY    70  57  64 N6        30.10S
6HR MIN TEMP:  68; 6HR MAX TEMP:  73;

PINE BELT      CLOUDY    63  54  72 NE10      30.12S
6HR MIN TEMP:  61; 6HR MAX TEMP:  66;

$$

MSZ080>082-190100-
COASTAL MISSISSIPPI

CITY           SKY/WX    TMP DP  RH WIND       PRES   REMARKS
BAY ST LOUIS   MOCLDY    63  55  77 N9        30.09S
BILOXI         CLOUDY    64  57  77 N9        30.07R
                                      6HR PCP: TRACE;

PASCAGOULA     MOCLDY    62  56  80 N16G23    30.05R
6HR MIN TEMP:  61; 6HR MAX TEMP:  66;

GULFPORT       CLOUDY    65  56  72 NW13      30.07R
6HR MIN TEMP:  65; 6HR MAX TEMP:  72;

$$



USA.gov is the U.S. government's official web portal to all federal, state and local government web resources and services.